Weather History for KDDH - February, 2014

Change the Weather History Date:

Saturday, February 1, 2014

  Actual Average Record
Temperature  
Mean Temperature 38 °F 22 °F  
Max Temperature 57 °F 32 °F 57 °F (2014)
Min Temperature 19 °F 13 °F -1 °F (2015)
Degree Days  
Heating Degree Days 27 43  
Month to date heating degree days 43  
Since 1 July heating degree days 4070 4174  
Cooling Degree Days 0 0  
Month to date cooling degree days 0  
Year to date cooling degree days 0 0  
Moisture  
Dew Point 23 °F    
Average Humidity 50    
Maximum Humidity 77    
Minimum Humidity 23    
Precipitation  
Precipitation 0.03 in 0.06 in 0.03 in (2014)
Month to date precipitation 0.03 0.06  
Year to date precipitation 2.95 2.81  
Sea Level Pressure  
Sea Level Pressure 30.16 in    
Wind  
Wind Speed 3 mph (SSE)    
Max Wind Speed 15 mph    
Max Gust Speed 23 mph    
Visibility 7 miles    
Events Snow    
T = Trace of Precipitation, MM = Missing Value Source: NWS Daily Summary

Daily Weather History Graph

Daily Weather History Graph

Search for Another Location

Airport or City:

Trip Planner

Search our weather history database for the weather conditions in past years. The results will help you decide how hot, cold, wet, or windy it might be!

Date:

Astronomy

Feb. 01, 2014 Rise Set
Actual Time 7:07 AM EST 5:05 PM EST
Civil Twilight 6:37 AM EST 5:35 PM EST
Nautical Twilight 6:03 AM EST 6:09 PM EST
Astronomical Twilight 5:30 AM EST 6:43 PM EST
Moon 7:51 AM EST (2/1) 7:42 PM EST (2/1)
Length of Visible Light 10h 58m
Length of Day
9h 58m
Waxing Crescent, 5% of the Moon is Illuminated
Feb 1
Waxing Crescent
Feb 6
First Quarter
Feb 14
Full
Feb 22
Last Quarter
Mar 1
New

Hourly Weather History & Observations

Time (EST) Temp. Windchill Dew Point Humidity Pressure Visibility Wind Dir Wind Speed Gust Speed Precip Events Conditions
12:54 AM 24.1 °F 19.7 °F 16.0 °F 71% 30.21 in 10.0 mi South 3.5 mph - N/A   Clear
1:54 AM 21.9 °F - 15.1 °F 75% 30.21 in 10.0 mi Calm Calm - N/A   Clear
2:54 AM 19.9 °F 13.4 °F 12.9 °F 74% 30.24 in 10.0 mi SSE 4.6 mph - N/A   Clear
3:54 AM 21.9 °F - 15.1 °F 75% 30.23 in 10.0 mi Calm Calm - N/A   Clear
4:54 AM 25.0 °F - 16.0 °F 69% 30.26 in 10.0 mi Calm Calm - N/A   Clear
5:54 AM 26.1 °F - 16.0 °F 66% 30.27 in 10.0 mi Calm Calm - N/A   Clear
6:54 AM 33.1 °F - 15.1 °F 48% 30.29 in 10.0 mi Calm Calm - N/A   Clear
7:54 AM 27.0 °F - 15.1 °F 61% 30.32 in 9.0 mi Calm Calm - N/A   Clear
8:54 AM 28.0 °F - 16.0 °F 61% 30.31 in 10.0 mi Calm Calm - N/A   Clear
9:54 AM 46.0 °F 43.9 °F 18.0 °F 33% 30.28 in 10.0 mi SE 4.6 mph - N/A   Clear
10:54 AM 53.1 °F - 18.0 °F 25% 30.26 in 10.0 mi ESE 3.5 mph - N/A   Clear
11:54 AM 57.9 °F - 19.0 °F 22% 30.23 in 10.0 mi South 8.1 mph - N/A   Clear
12:54 PM 54.0 °F - 19.9 °F 26% 30.20 in 10.0 mi South 5.8 mph - N/A   Clear
1:54 PM 55.9 °F - 21.9 °F 27% 30.17 in 10.0 mi South 6.9 mph - N/A   Mostly Cloudy
2:54 PM 55.9 °F - 23.0 °F 28% 30.16 in 10.0 mi South 6.9 mph - N/A   Overcast
3:12 PM 53.1 °F - 27.0 °F 37% 30.16 in 5.0 mi SSE 13.8 mph 19.6 mph N/A   Haze
3:33 PM 50.0 °F - 30.0 °F 46% 30.15 in 1.8 mi South 9.2 mph - N/A   Haze
3:54 PM 37.9 °F - 30.9 °F 76% 30.17 in 1.0 mi Calm Calm - 0.00 in Snow Light Snow
4:12 PM 37.0 °F 34.5 °F 30.9 °F 79% 30.12 in 2.5 mi NE 3.5 mph - 0.00 in Snow Light Snow
4:23 PM 37.0 °F - 30.9 °F 79% 30.12 in 2.0 mi Calm Calm - 0.01 in Snow Light Snow
4:54 PM 39.9 °F - 30.9 °F 70% 30.14 in 2.0 mi Calm Calm - 0.01 in   Unknown
5:09 PM 37.9 °F - 30.9 °F 76% 30.12 in 4.0 mi Calm Calm - 0.01 in   Haze
5:21 PM 37.0 °F - 30.9 °F 79% 30.12 in 2.5 mi Calm Calm - 0.01 in Snow Light Snow
5:32 PM 36.0 °F - 30.9 °F 82% 30.11 in 1.2 mi Calm Calm - 0.01 in Snow Light Snow
5:50 PM 37.4 °F - 30.2 °F 75% 30.10 in 3.0 mi Calm Calm - 0.02 in   Haze
5:51 PM 37.0 °F - 30.9 °F 79% 30.13 in 3.0 mi Calm Calm - 0.02 in   Haze
6:54 PM 50.0 °F - 26.1 °F 39% 30.07 in 10.0 mi North - - 0.00 in   Overcast
7:54 PM 44.1 °F - 24.1 °F 45% 30.04 in 10.0 mi Calm Calm - N/A   Overcast
8:54 PM - - - N/A% 30.01 in 10.0 mi North - - N/A   Overcast
9:54 PM - - - N/A% 29.98 in 10.0 mi North - - N/A   Mostly Cloudy
10:54 PM - - - N/A% 29.96 in 10.0 mi Calm Calm - N/A   Overcast
11:54 PM - - - N/A% 29.94 in 10.0 mi SSW 11.5 mph 18.4 mph N/A   Overcast